DW9007 Weather Reports


Display with metric or nautical units.
time (UTC)temp
F
wind
direction
speed
MPH
gust
MPH
rain 1hr
in
rain 24hr
in
rain mn
in
humidity
%
barometer
mb
20260902110040 73 106 0.0 0.0 0.00 0.00 0.00 93 1016.8
20260902104535 73 106 0.0 0.0 0.00 0.00 0.00 92 1016.7
20260902103020 73 106 0.0 0.0 0.00 0.00 0.00 92 1016.6
20260902101506 73 106 0.0 0.0 0.00 0.00 0.00 92 1016.5
20260902100001 73 106 0.0 0.0 0.00 0.00 0.00 92 1016.4
20260902094542 74 106 0.0 0.0 0.00 0.00 0.00 92 1016.2
20260902093041 74 106 0.0 0.0 0.00 0.00 0.00 92 1016.1
20260902091525 74 106 0.0 0.0 0.00 0.00 0.00 91 1016.0
20260902090022 74 106 0.0 0.0 0.00 0.00 0.00 91 1015.9
20260902084504 74 106 0.0 0.0 0.00 0.00 0.00 91 1015.8
20260902083006 74 106 0.0 0.0 0.00 0.00 0.00 91 1015.7
20260902081546 74 106 0.0 0.0 0.00 0.00 0.00 91 1015.7
20260902080057 75 106 0.0 0.0 0.00 0.00 0.00 91 1015.6
20260902074526 75 106 0.0 0.0 0.00 0.00 0.00 90 1015.5
20260902073024 75 106 0.0 0.0 0.00 0.00 0.00 90 1015.5
20260902071506 75 106 0.0 0.0 0.00 0.00 0.00 89 1015.5
20260902070007 75 106 0.0 0.0 0.00 0.00 0.00 89 1015.5
20260902064604 75 106 0.0 0.0 0.00 0.00 0.00 89 1015.5
20260902063047 76 106 0.0 0.0 0.00 0.00 0.00 88 1015.5
20260902061552 76 106 0.0 0.0 0.00 0.00 0.00 88 1015.6
20260902060039 76 106 0.0 0.0 0.00 0.00 0.00 87 1015.6
20260902054537 76 106 0.0 0.0 0.00 0.00 0.00 87 1015.8
20260902053007 77 106 0.0 0.0 0.00 0.00 0.00 86 1015.8
20260902051550 77 106 0.0 0.0 0.00 0.00 0.00 85 1015.8
20260902050048 77 106 0.0 0.0 0.00 0.00 0.00 85 1015.8
20260902044527 77 106 0.0 0.0 0.00 0.00 0.00 84 1015.8
20260902043032 78 106 0.0 0.0 0.00 0.00 0.00 83 1016.0
20260902041506 78 106 0.0 0.0 0.00 0.00 0.00 83 1016.1
20260902040005 78 106 0.0 0.0 0.00 0.00 0.00 82 1016.1
20260902034557 78 106 0.0 0.0 0.00 0.00 0.00 82 1016.1
20260902033059 79 106 0.0 0.0 0.00 0.00 0.00 81 1016.1
20260902031529 79 106 0.0 0.0 0.00 0.00 0.00 80 1016.1
20260902030025 79 106 0.0 0.0 0.00 0.00 0.00 80 1016.1
20260902024506 80 106 0.0 0.0 0.00 0.00 0.00 79 1016.1
20260902023005 80 106 0.0 0.0 0.00 0.00 0.00 78 1016.1
20260902021546 81 106 0.0 0.0 0.00 0.00 0.00 77 1016.0
20260902020043 81 106 0.0 0.0 0.00 0.00 0.00 76 1015.8
20260902014528 82 106 0.0 0.0 0.00 0.00 0.00 74 1015.5
20260902013021 82 106 0.0 0.0 0.00 0.00 0.00 73 1015.5
20260902011501 83 106 0.0 0.0 0.00 0.00 0.00 72 1015.4
20260902010105 83 106 0.0 0.0 0.00 0.00 0.00 70 1015.2
20260902004539 84 106 0.0 0.0 0.00 0.00 0.00 68 1015.1
20260902003037 85 106 0.0 0.0 0.00 0.00 0.00 67 1015.1
20260902001516 86 106 0.0 0.0 0.00 0.00 0.00 65 1015.1
20260902000016 87 106 0.0 0.0 0.00 0.00 0.00 63 1015.1
20260901234555 89 106 0.0 0.0 0.00 0.00 0.00 61 1015.2
20260901233050 90 107 0.0 0.0 0.00 0.00 0.00 58 1015.2
20260901231525 91 107 0.0 0.0 0.00 0.00 0.00 56 1015.1
20260901230024 92 107 0.0 0.0 0.00 0.00 0.00 53 1015.2
20260901224513 93 107 0.0 0.0 0.00 0.00 0.00 53 1015.0
20260901223003 93 107 0.0 1.0 0.00 0.00 0.00 51 1015.0
20260901221606 94 113 0.0 2.0 0.00 0.00 0.00 49 1015.0
20260901220044 95 277 0.0 4.0 0.00 0.00 0.00 50 1015.0
20260901214548 94 71 0.0 2.0 0.00 0.00 0.00 51 1015.0
20260901213029 94 125 1.0 5.0 0.00 0.00 0.00 48 1015.1
20260901211528 94 93 1.0 5.0 0.00 0.00 0.00 49 1015.2
20260901210026 94 109 1.0 4.0 0.00 0.00 0.00 48 1015.3
20260901204525 94 269 0.0 4.0 0.00 0.00 0.00 50 1015.4
20260901203023 94 82 1.0 5.0 0.00 0.00 0.00 48 1015.5
20260901201521 94 98 2.0 7.0 0.00 0.00 0.00 49 1015.7
20260901200024 94 192 0.0 4.0 0.00 0.00 0.00 52 1016.0
20260901194517 94 87 1.0 9.0 0.00 0.00 0.00 50 1016.1
20260901193110 94 241 0.0 8.0 0.00 0.00 0.00 52 1016.1
20260901191556 93 148 0.0 3.0 0.00 0.00 0.00 54 1016.4
20260901190048 92 16 0.0 1.0 0.00 0.00 0.00 54 1016.5
20260901184540 92 65 2.0 7.0 0.00 0.00 0.00 55 1016.8
20260901183017 92 22 1.0 7.0 0.00 0.00 0.00 56 1016.9
20260901181526 91 105 0.0 4.0 0.00 0.00 0.00 57 1017.0
20260901180058 91 165 1.0 4.0 0.00 0.00 0.00 59 1017.0
20260901174558 90 87 0.0 3.0 0.00 0.00 0.00 58 1017.3
20260901173039 90 101 4.0 8.0 0.00 0.00 0.00 61 1017.3
20260901171552 90 108 0.0 5.0 0.00 0.00 0.00 63 1017.5
20260901170022 89 111 2.0 7.0 0.00 0.00 0.00 63 1017.8
20260901164522 89 65 1.0 7.0 0.00 0.00 0.00 63 1017.9
20260901163004 89 306 1.0 4.0 0.00 0.00 0.00 67 1017.8
20260901161503 88 295 0.0 2.0 0.00 0.00 0.00 68 1018.1
20260901160045 87 10 0.0 4.0 0.00 0.00 0.00 70 1018.3
20260901154545 86 121 0.0 3.0 0.00 0.00 0.00 74 1018.2
20260901153026 85 74 0.0 3.0 0.00 0.00 0.00 77 1018.4
20260901151532 84 294 0.0 1.0 0.00 0.00 0.00 81 1018.3
20260901150009 83 5 0.0 1.0 0.00 0.00 0.00 84 1018.4
20260901144516 81 21 0.0 3.0 0.00 0.00 0.00 86 1018.4
20260901143107 80 65 0.0 2.0 0.00 0.00 0.00 90 1018.5
20260901141549 78 82 0.0 0.0 0.00 0.00 0.00 91 1018.4
20260901140033 77 82 0.0 1.0 0.00 0.00 0.00 92 1018.4
20260901134535 76 80 0.0 0.0 0.00 0.00 0.00 94 1018.3
20260901133018 75 80 0.0 0.0 0.00 0.00 0.00 94 1018.3
20260901131513 74 80 0.0 0.0 0.00 0.00 0.00 95 1018.4
20260901130055 73 80 0.0 0.0 0.00 0.00 0.00 95 1018.4
20260901124555 73 80 0.0 0.0 0.00 0.00 0.00 95 1018.4
20260901123109 72 80 0.0 0.0 0.00 0.00 0.00 95 1018.2
20260901121603 72 80 0.0 0.0 0.00 0.00 0.00 95 1018.1
20260901120052 71 80 0.0 0.0 0.00 0.00 0.00 94 1017.8
20260901114547 71 80 0.0 0.0 0.00 0.00 0.00 94 1017.6
20260901113047 71 80 0.0 0.0 0.00 0.00 0.00 94 1017.4
20260901111546 71 80 0.0 0.0 0.00 0.00 0.00 94 1017.4